Date String (YYYY-MM-DD hh:mm:ss) UTC,Instrument flags,absolute air pressure of the measurement (hPa),sample flow rate (lpm),inlet stack bypass flow (lpm),air temperature of the measurement (°C),ambient temperature measured by the external sensor (°C),aerosol sample conditioner tube jacket temperature (°C),OPC LED temperature (°C),internal box temperature (°C),relative humidity of the measurement (%),span deviation,mass concentration of particles derived from Lorenz-Mie calculation of OPC scattering (μg/m³),mass concentration of particles derived from Lorenz-Mie calculation of OPC scattering (μg/m³),mass concentration of particles derived from Lorenz-Mie calculation of OPC scattering (μg/m³)
DateTimeUTC,F1_M11,P_M11,Q1_M11,Q2_M11,T1_M11,T2_M11,T3_M11,T4_M11,T5_M11,U1_M11,ZSPAN_M11,X2_M11,X0_M11,X1_M11
2024-03-19 21:00:00,SystemResetWarning,0827.3,5.01,000.00,023.8,023.2,000.0,032.1,025.6,13.3,0000.0,0003.75,0010.78,0002.81
2024-03-19 21:01:00,SystemResetWarning,0827.3,4.99,000.00,023.8,023.3,000.0,032.1,025.6,13.6,0000.0,0003.77,0010.57,0002.86
2024-03-19 21:02:00,SystemResetWarning,0827.3,4.99,000.00,023.8,023.3,000.0,032.1,025.6,13.3,0000.0,0003.79,0010.09,0002.90
2024-03-19 21:03:00,SystemResetWarning,0827.3,5.01,000.00,023.9,023.3,000.0,032.1,025.6,13.2,0000.0,0003.81,0010.18,0002.93
2024-03-19 21:04:00,SystemResetWarning,0827.2,5.01,000.00,023.9,023.3,000.0,032.2,025.6,13.3,0000.0,0003.86,0009.59,0002.95
2024-03-19 21:05:00,SystemResetWarning,0827.3,4.99,000.00,023.9,023.3,000.0,032.2,025.6,13.4,0000.0,0003.88,0009.18,0002.99
2024-03-19 21:06:00,SystemResetWarning,0827.2,4.99,000.00,023.9,023.3,000.0,032.2,025.6,12.6,0000.0,0003.90,0008.75,0003.04
2024-03-19 21:07:00,SystemResetWarning,0827.2,5.00,000.00,023.9,023.3,000.0,032.2,025.7,13.1,0000.0,0003.92,0008.48,0003.10
2024-03-19 21:08:00,SystemResetWarning,0827.2,4.99,000.00,023.9,023.3,000.0,032.2,025.7,13.1,0000.0,0003.96,0007.97,0003.12
2024-03-19 21:09:00,SystemResetWarning,0827.2,5.01,000.00,023.9,023.3,000.0,032.2,025.7,13.6,0000.0,0003.99,0008.34,0003.14
2024-03-19 21:10:00,SystemResetWarning,0827.2,5.01,000.00,024.0,023.4,000.0,032.2,025.7,14.2,0000.0,0004.02,0008.55,0003.15
2024-03-19 21:11:00,SystemResetWarning,0827.3,5.00,000.00,024.0,023.4,000.0,032.3,025.7,15.0,0000.0,0004.02,0008.55,0003.15
2024-03-19 21:12:00,SystemResetWarning,0827.2,4.99,000.00,024.0,023.4,000.0,032.3,025.7,14.6,0000.0,0004.02,0008.98,0003.16
2024-03-19 21:13:00,SystemResetWarning,0827.3,4.99,000.00,024.0,023.4,000.0,032.3,025.8,13.8,0000.0,0004.04,0009.76,0003.17
2024-03-19 21:14:00,SystemResetWarning,0827.2,4.99,000.00,024.0,023.4,000.0,032.3,025.8,13.4,0000.0,0004.10,0009.67,0003.20
2024-03-19 21:15:00,SystemResetWarning,0827.2,5.00,000.00,024.0,023.4,000.0,032.3,025.9,13.8,0000.0,0004.14,0009.88,0003.22
2024-03-19 21:16:00,SystemResetWarning,0827.2,5.01,000.00,024.0,023.4,000.0,032.3,025.9,13.5,0000.0,0004.18,0011.22,0003.24
2024-03-19 21:17:00,SystemResetWarning,0827.2,5.00,000.00,024.0,023.4,000.0,032.4,025.9,14.5,0000.0,0004.21,0011.36,0003.25
2024-03-19 21:18:00,SystemResetWarning,0827.2,5.01,000.00,024.1,023.4,000.0,032.4,025.9,13.9,0000.0,0004.26,0011.56,0003.26
2024-03-19 21:19:00,SystemResetWarning,0827.2,5.00,000.00,024.1,023.5,000.0,032.4,025.9,13.5,0000.0,0004.27,0011.59,0003.26
2024-03-19 21:20:00,SystemResetWarning,0827.2,4.99,000.00,024.1,023.5,000.0,032.4,025.9,13.5,0000.0,0004.25,0011.69,0003.26
2024-03-19 21:21:00,SystemResetWarning,0827.2,4.99,000.00,024.1,023.5,000.0,032.4,025.9,13.5,0000.0,0004.22,0011.79,0003.27
2024-03-19 21:22:00,SystemResetWarning,0827.2,5.00,000.00,024.1,023.5,000.0,032.4,025.9,13.3,0000.0,0004.23,0012.13,0003.29
2024-03-19 21:23:00,SystemResetWarning,0827.1,5.00,000.00,024.1,023.5,000.0,032.4,025.9,13.3,0000.0,0004.24,0012.09,0003.31
2024-03-19 21:24:00,SystemResetWarning,0827.1,4.99,000.00,024.1,023.5,000.0,032.4,025.9,13.5,0000.0,0004.27,0012.11,0003.30
2024-03-19 21:25:00,SystemResetWarning,0827.2,5.00,000.00,024.1,023.5,000.0,032.5,025.9,14.0,0000.0,0004.24,0012.82,0003.29
2024-03-19 21:26:00,SystemResetWarning,0827.2,5.00,000.00,024.1,023.5,000.0,032.5,025.9,13.4,0000.0,0004.25,0013.26,0003.29
2024-03-19 21:27:00,SystemResetWarning,0827.1,5.01,000.00,024.1,023.5,000.0,032.5,026.0,13.6,0000.0,0004.20,0012.47,0003.30
2024-03-19 21:28:00,SystemResetWarning,0827.1,5.00,000.00,024.2,023.5,000.0,032.5,026.0,13.3,0000.0,0004.21,0012.68,0003.30
2024-03-19 21:29:00,SystemResetWarning,0827.2,5.00,000.00,024.2,023.5,000.0,032.5,026.0,13.6,0000.0,0004.19,0012.61,0003.31
2024-03-19 21:30:00,SystemResetWarning,0827.2,4.99,000.00,024.2,023.5,000.0,032.5,026.0,13.3,0000.0,0004.18,0013.25,0003.31
2024-03-19 21:31:00,SystemResetWarning,0827.1,5.00,000.00,024.2,023.5,000.0,032.5,026.0,13.7,0000.0,0004.17,0013.29,0003.32
2024-03-19 21:32:00,SystemResetWarning,0827.1,5.00,000.00,024.2,023.5,000.0,032.5,026.0,13.6,0000.0,0004.17,0013.53,0003.33
2024-03-19 21:33:00,SystemResetWarning,0827.2,5.01,000.00,024.2,023.5,000.0,032.5,026.0,13.4,0000.0,0004.18,0014.45,0003.34
2024-03-19 21:34:00,SystemResetWarning,0827.2,5.01,000.00,024.2,023.6,000.0,032.6,026.0,13.3,0000.0,0004.15,0014.48,0003.34
2024-03-19 21:35:00,SystemResetWarning,0827.1,4.99,000.00,024.2,023.6,000.0,032.6,026.0,13.1,0000.0,0004.14,0014.41,0003.35
2024-03-19 21:36:00,SystemResetWarning,0827.1,4.99,000.00,024.2,023.5,000.0,032.6,026.0,13.6,0000.0,0004.13,0013.65,0003.36
2024-03-19 21:37:00,SystemResetWarning,0827.2,5.00,000.00,024.2,023.6,000.0,032.6,026.0,14.0,0000.0,0004.11,0013.42,0003.36
2024-03-19 21:38:00,SystemResetWarning,0827.1,5.00,000.00,024.2,023.6,000.0,032.6,026.0,13.9,0000.0,0004.07,0012.96,0003.35
2024-03-19 21:39:00,SystemResetWarning,0827.1,5.01,000.00,024.2,023.6,000.0,032.6,026.0,13.9,0000.0,0004.09,0013.65,0003.35
2024-03-19 21:40:00,SystemResetWarning,0827.1,5.00,000.00,024.2,023.6,000.0,032.6,026.0,13.6,0000.0,0004.09,0014.23,0003.34
2024-03-19 21:41:00,SystemResetWarning,0827.1,5.01,000.00,024.3,023.6,000.0,032.6,026.0,13.5,0000.0,0004.12,0014.29,0003.35
2024-03-19 21:42:00,SystemResetWarning,0827.1,4.99,000.00,024.3,023.6,000.0,032.6,026.0,13.2,0000.0,0004.12,0014.20,0003.35
2024-03-19 21:43:00,SystemResetWarning,0827.1,5.00,000.00,024.3,023.6,000.0,032.6,026.0,13.4,0000.0,0004.15,0015.12,0003.37
2024-03-19 21:44:00,SystemResetWarning,0827.1,4.99,000.00,024.3,023.6,000.0,032.6,026.0,13.4,0000.0,0004.18,0014.31,0003.38
2024-03-19 21:45:00,SystemResetWarning,0827.0,5.00,000.00,024.3,023.6,000.0,032.7,026.1,13.8,0000.0,0004.20,0014.41,0003.39
2024-03-19 21:46:00,SystemResetWarning,0827.1,5.01,000.00,024.3,023.6,000.0,032.7,026.1,13.4,0000.0,0004.21,0014.19,0003.38
2024-03-19 21:47:00,SystemResetWarning,0827.1,5.00,000.00,024.3,023.6,000.0,032.7,026.1,14.0,0000.0,0004.19,0014.15,0003.38
2024-03-19 21:48:00,SystemResetWarning,0827.1,5.00,000.00,024.3,023.6,000.0,032.7,026.1,13.9,0000.0,0004.17,0013.96,0003.38
2024-03-19 21:49:00,SystemResetWarning,0827.1,5.00,000.00,024.3,023.6,000.0,032.7,026.1,13.5,0000.0,0004.17,0013.89,0003.38
2024-03-19 21:50:00,SystemResetWarning,0827.1,4.99,000.00,024.3,023.6,000.0,032.7,026.1,13.3,0000.0,0004.14,0012.96,0003.39
2024-03-19 21:51:00,SystemResetWarning,0827.1,5.00,000.00,024.3,023.6,000.0,032.7,026.1,13.6,0000.0,0004.16,0012.28,0003.40
2024-03-19 21:52:00,SystemResetWarning,0827.1,5.00,000.00,024.3,023.7,000.0,032.7,026.1,13.7,0000.0,0004.17,0011.79,0003.40
2024-03-19 21:53:00,SystemResetWarning,0827.1,5.00,000.00,024.3,023.7,000.0,032.7,026.1,13.3,0000.0,0004.21,0012.23,0003.41
2024-03-19 21:54:00,SystemResetWarning,0827.1,5.01,000.00,024.3,023.7,000.0,032.7,026.1,13.5,0000.0,0004.24,0012.15,0003.42
2024-03-19 21:55:00,SystemResetWarning,0827.0,5.00,000.00,024.4,023.7,000.0,032.7,026.1,13.2,0000.0,0004.24,0011.85,0003.43
2024-03-19 21:56:00,SystemResetWarning,0827.0,5.00,000.00,024.4,023.7,000.0,032.8,026.2,13.8,0000.0,0004.26,0011.95,0003.44
2024-03-19 21:57:00,SystemResetWarning,0827.0,5.00,000.00,024.4,023.7,000.0,032.8,026.2,13.5,0000.0,0004.26,0011.61,0003.44
2024-03-19 21:58:00,SystemResetWarning,0827.1,5.00,000.00,024.4,023.7,000.0,032.8,026.2,13.9,0000.0,0004.31,0012.14,0003.45
2024-03-19 21:59:00,SystemResetWarning,0827.1,4.99,000.00,024.4,023.7,000.0,032.8,026.2,13.5,0000.0,0004.35,0012.09,0003.47
